CDT,Max TemperatureF,Mean TemperatureF,Min TemperatureF,Max Dew PointF,MeanDew PointF,Min DewpointF,Max Humidity, Mean Humidity, Min Humidity, Max Sea Level PressureIn, Mean Sea Level PressureIn, Min Sea Level PressureIn, Max VisibilityMiles, Mean VisibilityMiles, Min VisibilityMiles, Max Wind SpeedMPH, Mean Wind SpeedMPH, Max Gust SpeedMPH,PrecipitationIn, CloudCover, Events, WindDirDegrees
2013-3-1,26,14,3,18,11,1,93,81,64,30.38,30.34,30.26,10,9,0,9,6,,0.00,1,Fog,345
2013-3-2,24,12,0,18,10,-4,92,82,68,30.36,30.24,30.08,10,7,0,13,4,,0.00,6,Fog-Snow,127
2013-3-3,33,25,17,25,20,14,93,81,69,30.07,29.94,29.85,10,9,2,24,13,30,0.00,3,Snow,126
2013-3-4,28,26,24,27,24,21,100,89,80,29.93,29.86,29.80,10,4,1,22,17,29,0.00,8,Snow,126
2013-3-5,28,24,21,25,22,18,93,88,80,30.36,30.15,29.91,10,4,1,29,13,34,0.00,7,Snow,347
2013-3-6,24,22,19,18,16,16,93,82,69,30.43,30.37,30.31,10,9,4,10,7,,0.06,8,Snow,347
2013-3-7,26,22,17,19,17,16,93,83,74,30.32,30.24,30.16,10,10,7,22,12,26,0.00,3,,128
2013-3-8,33,22,12,30,19,10,93,83,69,30.24,30.17,29.98,10,4,2,14,6,,0.15,1,,98
2013-3-9,35,32,28,34,32,25,100,94,86,29.97,29.81,29.69,5,2,0,31,8,37,0.99,8,Rain-Snow,41
2013-3-10,26,20,14,25,19,10,93,87,79,30.09,30.02,29.89,10,5,0,31,26,39,0.00,7,Snow,344
2013-3-11,26,16,5,21,11,1,86,78,68,30.01,29.89,29.82,10,10,10,18,11,21,0.00,5,,313
2013-3-12,30,24,17,25,19,14,93,82,69,30.28,30.07,29.86,10,7,2,25,15,32,0.00,6,Snow,322
2013-3-13,26,14,3,23,12,1,92,77,59,30.39,30.30,30.11,10,10,4,16,8,20,0.00,2,Snow,186
2013-3-14,37,29,21,28,25,19,93,81,65,30.11,30.05,30.01,10,9,5,14,7,18,0.01,1,Snow,109
2013-3-15,35,30,26,30,28,23,100,90,81,30.03,29.93,29.82,7,5,2,17,9,,0.00,7,Rain,19
2013-3-16,28,16,3,27,7,0,100,81,68,30.28,30.17,29.96,10,9,2,21,14,23,0.00,5,Snow,335
2013-3-17,30,16,3,28,10,-2,93,78,67,30.27,30.01,29.62,10,9,1,24,10,32,0.00,6,Snow,120
2013-3-18,35,22,10,32,14,3,93,80,73,29.97,29.73,29.53,10,4,0,36,25,45,0.01,7,Snow,282
2013-3-19,17,9,1,9,2,-4,85,70,53,30.31,30.15,29.97,10,10,10,22,16,25,0.00,2,Snow,309
2013-3-20,17,10,3,7,2,-2,79,69,53,30.34,30.27,30.16,10,10,0,20,15,24,0.00,0,Snow,313
2013-3-21,21,8,-5,10,2,-9,85,72,53,30.16,30.09,30.05,10,10,0,8,3,,0.05,0,Snow,25
2013-3-22,24,11,-2,18,7,-8,92,78,59,30.11,30.08,30.06,10,10,10,7,2,,0.01,1,,327
2013-3-23,26,18,10,18,14,7,93,76,64,30.19,30.16,30.10,10,10,10,12,6,,0.00,3,,315
2013-3-24,33,24,15,27,19,12,93,84,75,30.16,30.10,30.06,10,8,2,23,11,26,0.00,5,Rain-Snow,333
2013-3-25,30,24,17,21,20,12,93,80,69,30.32,30.23,30.13,10,8,3,23,19,29,0.00,5,Snow,333
2013-3-26,28,17,6,19,13,3,93,81,64,30.34,30.31,30.27,10,10,5,12,7,,0.00,0,,321
2013-3-27,35,20,6,27,18,3,93,81,65,30.31,30.29,30.26,10,8,0,13,4,,0.00,2,Fog-Snow,109
2013-3-28,39,34,28,32,28,21,93,79,70,30.29,30.24,30.20,10,10,7,13,10,,0.00,4,,118
2013-3-29,42,35,28,37,33,28,100,88,76,30.21,30.12,29.92,10,5,1,13,6,,0.00,3,Thunderstorm,114
2013-3-30,39,36,33,36,33,30,100,91,81,29.96,29.93,29.87,7,3,0,15,8,23,0.00,4,Fog-Rain-Snow-Thunderstorm,314
2013-3-31,33,27,21,32,23,16,100,79,64,30.20,30.01,29.87,10,9,2,30,15,36,0.00,3,,321